Location: Albany
(35.0000°S, 118.0000°E)
Time: 03:20:06
(UTC-04:00)

Cosmos 1626 - Visible Passes

Search period start: 21 April 2014 00:00
Search period end: 01 May 2014 00:00
Orbit: 519 x 525 km, 82.5° (Epoch: 20 April)

Date Brightness Start Highest point End Pass type
(mag) Time Alt. Az. Time Alt. Az. Time Alt. Az.
21 Apr 5.3 17:54:50 10° SE 17:57:16 16° ESE 17:59:39 10° ENE visible
22 Apr 4.8 07:41:13 10° NNW 07:41:32 12° NNW 07:41:32 12° NNW visible
22 Apr 5.5 17:42:07 10° SE 17:44:06 14° ESE 17:46:05 10° ENE visible
23 Apr 3.2 07:28:04 10° N 07:30:33 38° NNW 07:30:33 38° NNW visible
23 Apr 5.6 17:29:32 10° SE 17:30:56 12° ESE 17:32:19 10° E visible
24 Apr 2.1 07:14:55 10° N 07:18:48 88° W 07:19:44 51° S visible
25 Apr 2.1 07:01:47 10° N 07:05:39 78° E 07:09:07 13° S visible
26 Apr 2.1 06:48:39 10° N 06:52:29 65° E 06:56:24 10° SSE visible
27 Apr 2.3 06:35:31 10° N 06:39:19 54° E 06:43:10 10° SSE visible
27 Apr 2.2 18:10:22 10° S 18:14:18 76° W 18:18:10 10° N visible
28 Apr 2.5 06:22:24 10° NNE 06:26:07 46° E 06:29:53 10° SSE visible
28 Apr 2.2 17:57:09 10° S 18:01:06 89° W 18:04:58 10° N visible
29 Apr 2.7 06:09:18 10° NNE 06:12:55 38° E 06:16:35 10° SSE visible
29 Apr 5.6 07:47:41 10° W 07:48:55 11° WSW 07:50:10 10° SW visible
29 Apr 2.4 17:43:55 10° S 17:47:51 77° E 17:51:43 10° N visible
30 Apr 2.9 05:56:12 10° NNE 05:59:41 33° E 06:03:13 10° SSE visible
30 Apr 5.5 07:33:43 10° WNW 07:35:37 13° WSW 07:37:32 10° SW visible
30 Apr 2.7 17:30:41 10° S 17:34:35 64° E 17:38:26 10° NNE visible
